FM-6

Last updated on Tue Sep 22 2026 00:03:13 GMT+0000 (Coordinated Universal Time)

1 39360U 13058A 26264.49061731 -.00000020 00000+0 00000+0 0 9990 2 39360 0.0242 245.0075 0000861 19.5583 156.0795 1.00272708 47034
UTC large
Height (km)
Speed (km/s)
/
Latitude / Longitude
Inclination (degrees)
Orbital Period (minutes)
Azimuth
Elevation
Range (km)
Doppler Factor

Next 0 passes for location: London (51.5072 / 0.1276)

No passes found over London.
FM-6